Gaylord, MI

11:24 AM EST on January 22, 2018 (GMT -0500)
Otsego County

Weather History for KGLR - March, 2013

Change the Weather History Date:

Monday, March 18, 2013

  Actual Average Record
Temperature  
Mean Temperature 22 °F -  
Max Temperature 34 °F 38 °F 79 °F (2012)
Min Temperature 10 °F 17 °F -10 °F (1959)
Degree Days  
Heating Degree Days 43    
Moisture  
Dew Point 21 °F    
Average Humidity 85    
Maximum Humidity 100    
Minimum Humidity 46    
Precipitation  
Precipitation 0.06 in - - ()
Sea Level Pressure  
Sea Level Pressure 29.71 in    
Wind  
Wind Speed 10 mph (SE)    
Max Wind Speed 21 mph    
Max Gust Speed 28 mph    
Visibility 5 miles    
Events Fog , Snow    
Averages and records for this station are not official NWS values.
T = Trace of Precipitation, MM = Missing Value Source: NWS Daily Summary

Daily Weather History Graph

Daily Weather History Graph

Search for Another Location

Airport or City:

Trip Planner

Search our weather history database for the weather conditions in past years. The results will help you decide how hot, cold, wet, or windy it might be!

Date:

Astronomy

Mar. 18, 2013 Rise Set
Actual Time 7:45 AM EDT 7:49 PM EDT
Civil Twilight 7:15 AM EDT 8:18 PM EDT
Nautical Twilight 6:41 AM EDT 8:52 PM EDT
Astronomical Twilight 6:06 AM EDT 9:27 PM EDT
Moon 11:29 AM EDT (3/18) 2:02 AM EDT (3/18)
Length of Visible Light 13h 02m
Length of Day
12h 03m
Waxing Crescent, 40% of the Moon is Illuminated
Mar 18
Waxing Crescent
Mar 19
First Quarter
Mar 27
Full
Apr 3
Last Quarter
Apr 10
New

Hourly Weather History & Observations

Time (EDT) Temp. Windchill Dew Point Humidity Pressure Visibility Wind Dir Wind Speed Gust Speed Precip Events Conditions
12:53 AM 12.9 °F -0.2 °F 7.0 °F 77% 30.22 in 10.0 mi SE 10.4 mph - N/A   Clear
1:53 AM 12.0 °F 0.5 °F 6.1 °F 77% 30.20 in 10.0 mi SE 8.1 mph - N/A   Clear
2:53 AM 10.9 °F 0.2 °F 6.1 °F 81% 30.18 in 10.0 mi SE 6.9 mph - N/A   Clear
3:53 AM 10.9 °F -0.8 °F 7.0 °F 84% 30.16 in 10.0 mi SE 8.1 mph - N/A   Clear
4:53 AM 10.9 °F 1.4 °F 7.0 °F 84% 30.14 in 10.0 mi SE 5.8 mph - N/A   Clear
5:53 AM 12.9 °F 3.8 °F 9.0 °F 84% 30.10 in 10.0 mi ESE 5.8 mph - N/A   Clear
6:53 AM 15.1 °F 5.2 °F 10.9 °F 84% 30.09 in 10.0 mi ESE 6.9 mph 16.1 mph N/A   Clear
7:53 AM 16.0 °F 2.3 °F 12.0 °F 84% 30.06 in 10.0 mi ESE 12.7 mph 19.6 mph N/A   Clear
8:53 AM 19.9 °F 7.3 °F 16.0 °F 85% 30.00 in 10.0 mi ESE 12.7 mph 23.0 mph N/A   Clear
9:53 AM 21.9 °F 8.2 °F 16.0 °F 78% 29.96 in 10.0 mi ESE 16.1 mph 23.0 mph N/A   Clear
10:53 AM 25.0 °F 13.1 °F 17.1 °F 72% 29.93 in 10.0 mi ESE 13.8 mph 21.9 mph N/A   Clear
11:53 AM 28.9 °F 18.2 °F 17.1 °F 61% 29.89 in 10.0 mi ESE 13.8 mph 25.3 mph N/A   Clear
12:53 PM 33.1 °F 24.9 °F 15.1 °F 48% 29.82 in 10.0 mi ESE 10.4 mph 23.0 mph N/A   Clear
1:53 PM 34.0 °F 26.0 °F 15.1 °F 46% 29.77 in 10.0 mi East 10.4 mph 23.0 mph N/A   Clear
2:53 PM 33.1 °F 21.2 °F 18.0 °F 54% 29.72 in 10.0 mi ESE 20.7 mph 27.6 mph N/A   Mostly Cloudy
3:07 PM 33.8 °F 25.3 °F 19.4 °F 56% 29.65 in 10.0 mi East 11.5 mph 21.9 mph N/A   Mostly Cloudy
3:53 PM 30.0 °F 21.7 °F 19.9 °F 66% 29.68 in 10.0 mi East 9.2 mph 27.6 mph N/A   Overcast
4:53 PM 28.0 °F 18.1 °F 23.0 °F 81% 29.66 in 4.0 mi ESE 11.5 mph 20.7 mph 0.00 in Snow Light Snow
5:17 PM 28.4 °F 18.0 °F 23.0 °F 80% 29.58 in 2.5 mi ESE 12.7 mph 25.3 mph 0.00 in Snow Light Snow
5:33 PM 28.4 °F 17.0 °F 24.8 °F 86% 29.58 in 1.2 mi ESE 15.0 mph 24.2 mph 0.01 in Snow Light Snow
5:46 PM 28.4 °F 21.2 °F 24.8 °F 86% 29.57 in 0.8 mi Variable 6.9 mph 17.3 mph 0.01 in Snow Light Snow
5:53 PM 28.0 °F 18.6 °F 25.0 °F 88% 29.64 in 0.8 mi ESE 10.4 mph 17.3 mph 0.01 in Snow Light Snow
6:09 PM 28.4 °F 19.1 °F 24.8 °F 86% 29.57 in 0.5 mi ESE 10.4 mph 17.3 mph 0.00 in Fog , Snow Snow
6:53 PM 28.0 °F 20.8 °F 26.1 °F 92% 29.60 in 0.5 mi Variable 6.9 mph - 0.01 in Fog , Snow Snow
7:06 PM 28.4 °F 21.2 °F 26.6 °F 93% 29.54 in 0.5 mi ESE 6.9 mph - 0.00 in Fog , Snow Light Snow
7:32 PM 28.4 °F 19.1 °F 26.6 °F 93% 29.53 in 0.8 mi SE 10.4 mph 23.0 mph 0.00 in Snow Light Snow
7:40 PM 28.4 °F 18.0 °F 26.6 °F 93% 29.53 in 0.8 mi SE 12.7 mph 20.7 mph 0.00 in Snow Light Snow
7:53 PM 28.0 °F 19.3 °F 26.1 °F 92% 29.59 in 0.8 mi SE 9.2 mph - 0.01 in Snow Light Snow
8:14 PM 28.4 °F 19.7 °F 26.6 °F 93% 29.53 in 0.8 mi SE 9.2 mph - 0.00 in Snow Light Snow
8:30 PM 28.4 °F 19.1 °F 26.6 °F 93% 29.53 in 1.0 mi SE 10.4 mph - 0.01 in Snow Light Snow
8:53 PM 27.0 °F 17.3 °F 26.1 °F 96% 29.57 in 0.8 mi SE 10.4 mph - 0.02 in Snow Light Snow
9:03 PM 26.6 °F 18.2 °F 26.6 °F 100% 29.51 in 1.0 mi ESE 8.1 mph - 0.00 in Snow Light Snow
9:11 PM 26.6 °F 15.7 °F 26.6 °F 100% 29.50 in 1.5 mi SE 12.7 mph - 0.00 in Snow Light Snow
9:16 PM 26.6 °F 16.8 °F 24.8 °F 93% 29.50 in 3.0 mi SE 10.4 mph - 0.00 in Snow Light Snow
9:23 PM 28.4 °F 19.1 °F 26.6 °F 93% 29.50 in 2.5 mi SE 10.4 mph - 0.00 in Snow Light Snow
9:53 PM 27.0 °F 18.7 °F 26.1 °F 96% 29.55 in 5.0 mi SSE 8.1 mph - 0.00 in Snow Light Snow
10:16 PM 26.6 °F 20.0 °F 26.6 °F 100% 29.48 in 2.5 mi SSE 5.8 mph - 0.00 in Snow Light Snow
10:26 PM 26.6 °F 18.2 °F 26.6 °F 100% 29.48 in 2.5 mi SSE 8.1 mph - 0.00 in Snow Light Snow
10:37 PM 26.6 °F 20.0 °F 26.6 °F 100% 29.48 in 3.0 mi South 5.8 mph - 0.00 in Snow Light Snow
10:53 PM 27.0 °F 19.5 °F 26.1 °F 96% 29.53 in 5.0 mi SSE 6.9 mph - 0.00 in Snow Light Snow
11:03 PM 26.6 °F 19.1 °F 26.6 °F 100% 29.47 in 7.0 mi SSE 6.9 mph - 0.00 in   Overcast
11:15 PM 28.4 °F 20.4 °F 26.6 °F 93% 29.47 in 7.0 mi SSE 8.1 mph - 0.00 in Snow Light Snow
11:53 PM 27.0 °F 21.6 °F 26.1 °F 96% 29.50 in 3.0 mi SSE 4.6 mph - 0.01 in Snow Light Snow